Location: Danville Conservation Area
(38.8674°N, 91.5143°W)
Time: 01:34:09
(UTC-06:00)

Envisat - Pass Details

Date: 28 November 2021
Orbit: 764 x 766 km, 98.2° (Epoch: 23 January)

Event Time Altitude Azimuth Distance (km) Brightness Sun altitude
Rises 04:57:25 0° 14° (NNE) 3,240 6.3 -24.0°
Reaches altitude 10° 04:59:44 10° 17° (NNE) 2,310 5.6 -23.5°
Maximum altitude 05:04:49 72° 102° (ESE) 805 3.2 -22.5°
Drops below altitude 10° 05:09:52 10° 187° (S) 2,293 5.5 -21.6°
Sets 05:12:10 0° 189° (S) 3,214 6.3 -21.1°
